Weather History for KNDZ - January, 2013

Change the Weather History Date:

Friday, January 25, 2013

  Actual Average (KNSE) Record (KNSE)
Temperature  
Mean Temperature 58 °F -  
Max Temperature 69 °F 59 °F 77 °F (2012)
Min Temperature 46 °F 41 °F 30 °F (2000)
Degree Days  
Heating Degree Days 8    
Growing Degree Days 8 (Base 50)    
Moisture  
Dew Point 50 °F    
Average Humidity 86    
Maximum Humidity 100    
Minimum Humidity 54    
Precipitation  
Precipitation 0.01 in - - ()
Sea Level Pressure  
Sea Level Pressure 30.23 in    
Wind  
Wind Speed 2 mph (ESE)    
Max Wind Speed 16 mph    
Max Gust Speed 24 mph    
Visibility 5 miles    
Events Fog    
Averages and records for this station are not official NWS values.
T = Trace of Precipitation, MM = Missing Value Source: NWS Daily Summary

Daily Weather History Graph

Daily Weather History Graph

Search for Another Location

Airport or City:

Trip Planner

Search our weather history database for the weather conditions in past years. The results will help you decide how hot, cold, wet, or windy it might be!

Date:

Astronomy

Jan. 25, 2013 Rise Set
Actual Time 6:43 AM CST 5:18 PM CST
Civil Twilight 6:17 AM CST 5:43 PM CST
Nautical Twilight 5:48 AM CST 6:12 PM CST
Astronomical Twilight 5:19 AM CST 6:41 PM CST
Moon 4:14 PM CST 5:21 AM CST
Length of Visible Light 11h 26m
Length of Day
10h 35m
Waxing Gibbous, 98% of the Moon is Illuminated
Jan 25
Waxing Gibbous
Jan 26
Full
Feb 3
Last Quarter
Feb 10
New
Feb 17
First Quarter

Hourly Weather History & Observations

Time (CST) Temp. Windchill Dew Point Humidity Pressure Visibility Wind Dir Wind Speed Gust Speed Precip Events Conditions
12:56 AM 52.0 °F - 51.1 °F 97% 30.24 in 5.0 mi Calm Calm - N/A   Clear
1:34 AM 51.8 °F - 50.0 °F 94% 30.27 in 1.8 mi Calm Calm - N/A   Clear
1:45 AM 51.8 °F - 50.0 °F 94% 30.27 in 0.8 mi Calm Calm - N/A   Mist
1:56 AM 51.1 °F - 48.9 °F 92% 30.23 in 0.8 mi Calm Calm - N/A   Mist
1:58 AM 50.0 °F - 48.2 °F 94% 30.26 in 1.2 mi Calm Calm - N/A   Partly Cloudy
2:03 AM 50.0 °F - 48.2 °F 94% 30.26 in 4.0 mi Calm Calm - N/A   Partly Cloudy
2:56 AM 48.9 °F - 46.0 °F 90% 30.22 in 2.0 mi Calm Calm - N/A   Partly Cloudy
3:01 AM 50.0 °F - 46.4 °F 87% 30.26 in 1.0 mi Calm Calm - N/A   Mist
3:33 AM 48.2 °F - 46.4 °F 93% 30.25 in 2.0 mi Calm Calm - N/A   Scattered Clouds
3:49 AM 48.2 °F - 46.4 °F 93% 30.25 in 5.0 mi ENE 3.5 mph - N/A   Partly Cloudy
3:54 AM 48.2 °F - 46.4 °F 93% 30.25 in 1.5 mi ENE 5.8 mph - N/A   Scattered Clouds
3:56 AM 48.9 °F - 46.9 °F 93% 30.22 in 0.8 mi ENE 5.8 mph - N/A   Mist
4:49 AM 48.2 °F - 46.4 °F 93% 30.26 in 2.0 mi Calm Calm - N/A   Mostly Cloudy
4:52 AM 48.2 °F - 46.4 °F 93% 30.26 in 5.0 mi East 3.5 mph - N/A   Scattered Clouds
4:56 AM 48.0 °F - 46.9 °F 96% 30.23 in 6.0 mi East 3.5 mph - N/A   Scattered Clouds
5:13 AM 48.2 °F - 44.6 °F 87% 30.27 in 1.8 mi ENE 3.5 mph - N/A   Partly Cloudy
5:32 AM 48.2 °F - 46.4 °F 93% 30.27 in 3.0 mi ENE 4.6 mph - 0.01 in   Partly Cloudy
5:56 AM 46.9 °F - 46.0 °F 97% 30.25 in 8.0 mi ENE 4.6 mph - 0.01 in   Clear
6:11 AM 46.4 °F 44.3 °F 46.4 °F 100% 30.29 in 1.8 mi ENE 4.6 mph - N/A   Clear
6:15 AM 46.4 °F 45.2 °F 46.4 °F 100% 30.29 in 1.0 mi ENE 3.5 mph - N/A   Mist
6:27 AM 46.4 °F 45.2 °F 46.4 °F 100% 30.29 in 1.8 mi ENE 3.5 mph - N/A   Scattered Clouds
6:36 AM 46.4 °F 45.2 °F 46.4 °F 100% 30.29 in 1.2 mi East 3.5 mph - N/A   Mostly Cloudy
6:51 AM 48.2 °F - 46.4 °F 93% 30.29 in 0.8 mi Calm Calm - N/A   Mist
6:56 AM 48.0 °F - 46.9 °F 96% 30.26 in 0.5 mi Calm Calm - N/A Fog Fog
7:13 AM 48.2 °F - 46.4 °F 93% 30.30 in 1.5 mi ENE 3.5 mph - N/A   Partly Cloudy
7:15 AM 48.2 °F - 46.4 °F 93% 30.30 in 3.0 mi ENE 3.5 mph - N/A   Partly Cloudy
7:56 AM 52.0 °F - 50.0 °F 93% 30.27 in 9.0 mi ENE 3.5 mph - N/A   Clear
8:56 AM 57.9 °F - 54.0 °F 87% 30.27 in 10.0 mi ESE 3.5 mph - N/A   Clear
9:56 AM 63.0 °F - 55.0 °F 75% 30.27 in 10.0 mi Variable 3.5 mph - N/A   Scattered Clouds
10:56 AM 68.0 °F - 55.0 °F 63% 30.23 in 10.0 mi SSW 8.1 mph 19.6 mph N/A   Unknown
11:56 AM 69.1 °F - 54.0 °F 58% 30.20 in 10.0 mi SSW 12.7 mph 23.0 mph N/A   Scattered Clouds
12:56 PM 69.1 °F - 53.1 °F 57% 30.18 in 10.0 mi SSW 16.1 mph 24.2 mph N/A   Scattered Clouds
1:56 PM 68.0 °F - 53.1 °F 59% 30.18 in 10.0 mi SSW 11.5 mph - N/A   Mostly Cloudy
2:56 PM 69.1 °F - 52.0 °F 54% 30.17 in 10.0 mi SSW 9.2 mph 17.3 mph N/A   Mostly Cloudy
3:56 PM 68.0 °F - 52.0 °F 56% 30.16 in 10.0 mi SSW 5.8 mph - N/A   Scattered Clouds
4:56 PM 66.0 °F - 53.1 °F 63% 30.14 in 10.0 mi SSW 8.1 mph - N/A   Partly Cloudy
5:56 PM 64.0 °F - 53.1 °F 67% 30.14 in 10.0 mi SSW 5.8 mph - N/A   Clear
6:56 PM 62.1 °F - 54.0 °F 75% 30.15 in 10.0 mi SSW 4.6 mph - N/A   Clear
7:56 PM 59.0 °F - 54.0 °F 83% 30.15 in 10.0 mi Calm Calm - N/A   Clear
8:56 PM 57.0 °F - 54.0 °F 89% 30.16 in 10.0 mi Calm Calm - N/A   Clear
9:56 PM 55.9 °F - 53.1 °F 90% 30.17 in 10.0 mi SSW 4.6 mph - N/A   Clear
10:56 PM 57.0 °F - 54.0 °F 89% 30.17 in 10.0 mi Calm Calm - N/A   Clear
11:56 PM 57.9 °F - 54.0 °F 87% 30.16 in 10.0 mi SSW 4.6 mph - N/A   Clear